CZ-3B DEB, 38748

Orbit data source: Space-Track

CZ-3B DEB, 38748 is space debris in HEO originally from a launch on Sat, 04 Sep 2010 UTC launched from the Xichang Space Center, China (XSC). Debris objects in space refer to the collection of defunct objects orbiting the Earth. Examples of debris include non-operational satellites, rocket bodies, and fragments generated from explosions, collisions, or faulty payload assembly.

Loading next visibility...
Identifier
38748, 2010-042C
Orbit
HEO
Last TLE update
1 year ago
Origin
Manufacturer
CALT
Mission
Spacecraft
Bus & Motor
Unknown
Mass
Unknown
Launch date (UTC)
2010-09-04 (15 years ago)
Launch vehicle
Unknown
Launch site
Xichang Space Center, China (XSC)
Object type
Payload
Rocket body
Debris
Shape & HBR
Unknown
Radar Cross Section
Medium (>0.1 m² and <1 m²)

Expand to show TLE details & history

TLE from 1 year ago
0 CZ-3B DEB
1 38748U 10042C   24168.06014989  .00002786  00000-0  66677-2 0  9992
2 38748  24.1882 332.1271 7267159 224.8517  46.4547  2.22791523 97483
Epoch: 2024-06-16T01:26Z
TLE epoch observation values (Epoch: 2024-06-16T01:26:36.95Z)
Latitude
-0.00025°
Longitude
45.63191°
Altitude
17,716.415 km
Speed
4.122 km/s
True Right ascension
22h 08m 24s
True Declination
0° 00' 01"
Sunlit
Object was in daylight at epoch
Visualization orbit readout
Latitude
-20.54838°
Longitude
-150.1509°
Altitude
30,942.108 km
Speed
2.272 km/s
Apparent Right ascension
09h 13m 45s
Apparent Declination
-23° 23' 54"
Sunlit
Object is in daylight
Visualization observer readout
Local Sidereal Time
22:15:04
Azimuth
42.65° NE
Elevation
-69.018°
Doppler factor
1
Orbital elements
Apogee altitude
36,387.592 km
Perigee altitude
390.315 km
Semi-major axis
24,767.091 km
Eccentricity
0.72672
Inclination
24.1882°
RAAN
332.1271°
Arg. of periapsis
224.8517°
True anomaly
Unknown
Mean anomaly
46.4547°
Eccentric anomaly
Unknown
Mean motion
0.55684 °/min
Orbital period
646.5 mins
BSTAR
0.0066677
Loading maneuver chart data...
Loading SW <> Apogee altitude chart data...
Loading historical data...
Loading historical data...
Loading historical data...
Loading historical data...
Loading historical data...
Loading historical data...
Loading historical data...

CZ-3B DEB Visibility forecast

Observer location: undefined°, undefined°

Span
Click to sort rows by Start time (UTC) header in descending order
Start Az.
Max El. time (UTC)
Max El. Az.
Max El.
End time (UTC)
End Az.
595 mins2025-07-01 14:06:36.029Z201.58° SSW2025-07-01 23:24:36.029Z171.368° S21.517°2025-07-02 00:01:36.029Z130.945° SE
|